contact:dominique.lefevre@mio.osupytheas.fr, maurice.libes@osupytheas.fr, didier.mallarino@osupytheas.fr
Project:EMSO http://www.emso-fr.org/EMSO-France
Depth: 2436.0 m
Title:EMSO Ligure Ouest : Data MII capteur MICROCAT
DateTime_Computer,Latitude,Longitude,Temperature,Conductivity,Pressure,DateTime_Instrument
DateTime_Computer,Latitude,Longitude,degC,S m-1,dbar,DateTime_Instrument
2017-09-29T16:42:28Z,42.805,6.029,13.2940,4.59975,2471.957,2017-9-29T18:43:51Z
2017-09-29T16:44:03Z,42.805,6.029,13.2950,4.59991,2471.942,2017-9-29T18:45:26Z
2017-09-29T16:45:38Z,42.805,6.029,13.2933,4.59975,2471.979,2017-9-29T18:47:01Z
2017-09-29T16:47:12Z,42.805,6.029,13.2942,4.59974,2471.957,2017-9-29T18:48:36Z
2017-09-29T16:48:47Z,42.805,6.029,13.2937,4.59977,2471.957,2017-9-29T18:50:11Z
2017-09-29T16:50:22Z,42.805,6.029,13.2936,4.59986,2471.957,2017-9-29T18:51:45Z
2017-09-29T16:51:57Z,42.805,6.029,13.2936,4.59992,2471.957,2017-9-29T18:53:20Z
2017-09-29T16:53:21Z,42.805,6.029,13.2940,4.59989,2471.957,2017-9-29T18:54:44Z
2017-09-29T16:54:56Z,42.805,6.029,13.2943,4.59989,2471.912,2017-9-29T18:56:19Z
2017-09-29T16:56:37Z,42.805,6.029,13.2943,4.60006,2471.957,2017-9-29T18:58:01Z
2017-09-29T16:58:12Z,42.805,6.029,13.2940,4.59981,2471.979,2017-9-29T18:59:35Z
2017-09-29T16:59:47Z,42.805,6.029,13.2936,4.59975,2471.934,2017-9-29T19:01:10Z
2017-09-29T17:01:22Z,42.805,6.029,13.2940,4.59983,2471.964,2017-9-29T19:02:45Z
2017-09-29T17:02:57Z,42.805,6.029,13.2942,4.59976,2471.957,2017-9-29T19:04:20Z
2017-09-29T17:04:31Z,42.805,6.029,13.2941,4.59980,2471.964,2017-9-29T19:05:55Z
2017-09-29T17:06:06Z,42.805,6.029,13.2937,4.59975,2471.964,2017-9-29T19:07:30Z
2017-09-29T17:07:41Z,42.805,6.029,13.2940,4.59977,2471.934,2017-9-29T19:09:04Z
2017-09-29T17:09:16Z,42.805,6.029,13.2938,4.59978,2471.957,2017-9-29T19:10:39Z
2017-09-29T17:10:51Z,42.805,6.029,13.2938,4.59973,2471.934,2017-9-29T19:12:14Z
2017-09-29T17:12:26Z,42.805,6.029,13.2939,4.59974,2471.934,2017-9-29T19:13:49Z
2017-09-29T17:14:00Z,42.805,6.029,13.2936,4.59968,2471.942,2017-9-29T19:15:24Z
2017-09-29T17:15:35Z,42.805,6.029,13.2936,4.59968,2471.934,2017-9-29T19:16:59Z
2017-09-29T17:17:10Z,42.805,6.029,13.2939,4.59973,2471.957,2017-9-29T19:18:33Z
2017-09-29T17:18:45Z,42.805,6.029,13.2934,4.59970,2471.979,2017-9-29T19:20:08Z
2017-09-29T17:20:17Z,42.805,6.029,13.2936,4.59974,2471.919,2017-9-29T19:21:40Z
2017-09-29T17:21:51Z,42.805,6.029,13.2936,4.59981,2471.942,2017-9-29T19:23:15Z
2017-09-29T17:23:26Z,42.805,6.029,13.2939,4.59971,2471.957,2017-9-29T19:24:50Z
2017-09-29T17:25:01Z,42.805,6.029,13.2938,4.59967,2471.957,2017-9-29T19:26:24Z
2017-09-29T17:26:36Z,42.805,6.029,13.2938,4.59967,2471.942,2017-9-29T19:27:59Z
2017-09-29T17:28:11Z,42.805,6.029,13.2940,4.59968,2471.957,2017-9-29T19:29:34Z
2017-09-29T17:29:46Z,42.805,6.029,13.2940,4.59964,2471.934,2017-9-29T19:31:09Z
2017-09-29T17:31:20Z,42.805,6.029,13.2935,4.59967,2471.957,2017-9-29T19:32:44Z
2017-09-29T17:32:55Z,42.805,6.029,13.2936,4.59967,2471.971,2017-9-29T19:34:19Z
2017-09-29T17:34:30Z,42.805,6.029,13.2939,4.59969,2472.002,2017-9-29T19:35:53Z
2017-09-29T17:36:05Z,42.805,6.029,13.2939,4.59968,2471.919,2017-9-29T19:37:28Z
2017-09-29T17:37:40Z,42.805,6.029,13.2936,4.59966,2471.942,2017-9-29T19:39:03Z
2017-09-29T17:39:15Z,42.805,6.029,13.2937,4.59967,2471.957,2017-9-29T19:40:38Z
2017-09-29T17:40:49Z,42.805,6.029,13.2935,4.59967,2471.919,2017-9-29T19:42:13Z
2017-09-29T17:42:24Z,42.805,6.029,13.2939,4.59964,2471.919,2017-9-29T19:43:48Z
2017-09-29T17:43:59Z,42.805,6.029,13.2939,4.59969,2471.971,2017-9-29T19:45:22Z
2017-09-29T17:45:34Z,42.805,6.029,13.2936,4.59968,2471.934,2017-9-29T19:46:57Z
2017-09-29T17:47:09Z,42.805,6.029,13.2942,4.59973,2471.994,2017-9-29T19:48:32Z
2017-09-29T17:48:44Z,42.805,6.029,13.2935,4.59974,2471.957,2017-9-29T19:50:07Z
2017-09-29T17:50:19Z,42.805,6.029,13.2938,4.59975,2471.964,2017-9-29T19:51:42Z
2017-09-29T17:51:53Z,42.805,6.029,13.2939,4.59974,2471.957,2017-9-29T19:53:17Z
2017-09-29T17:53:28Z,42.805,6.029,13.2939,4.59970,2471.919,2017-9-29T19:54:52Z
2017-09-29T17:55:03Z,42.805,6.029,13.2934,4.59967,2471.934,2017-9-29T19:56:26Z
2017-09-29T17:56:38Z,42.805,6.029,13.2940,4.59963,2471.957,2017-9-29T19:58:01Z
2017-09-29T17:58:13Z,42.805,6.029,13.2939,4.59970,2471.934,2017-9-29T19:59:36Z
2017-09-29T17:59:48Z,42.805,6.029,13.2936,4.59965,2471.934,2017-9-29T20:01:11Z
2017-09-29T18:01:22Z,42.805,6.029,13.2939,4.59962,2471.957,2017-9-29T20:02:46Z
2017-09-29T18:02:57Z,42.805,6.029,13.2935,4.59963,2471.934,2017-9-29T20:04:21Z
2017-09-29T18:04:32Z,42.805,6.029,13.2939,4.59964,2471.934,2017-9-29T20:05:55Z
2017-09-29T18:06:07Z,42.805,6.029,13.2935,4.59964,2471.934,2017-9-29T20:07:30Z
2017-09-29T18:07:42Z,42.805,6.029,13.2937,4.59964,2471.957,2017-9-29T20:09:05Z
2017-09-29T18:09:17Z,42.805,6.029,13.2939,4.59964,2471.934,2017-9-29T20:10:40Z
2017-09-29T18:10:51Z,42.805,6.029,13.2941,4.59964,2471.912,2017-9-29T20:12:15Z
2017-09-29T18:12:26Z,42.805,6.029,13.2933,4.59965,2471.919,2017-9-29T20:13:50Z
2017-09-29T18:14:01Z,42.805,6.029,13.2940,4.59965,2471.934,2017-9-29T20:15:24Z
2017-09-29T18:15:36Z,42.805,6.029,13.2940,4.59967,2471.957,2017-9-29T20:16:59Z
2017-09-29T18:17:11Z,42.805,6.029,13.2940,4.59966,2471.934,2017-9-29T20:18:34Z
2017-09-29T18:18:46Z,42.805,6.029,13.2936,4.59967,2471.919,2017-9-29T20:20:09Z
2017-09-29T18:20:20Z,42.805,6.029,13.2938,4.59963,2471.957,2017-9-29T20:21:44Z
2017-09-29T18:21:55Z,42.805,6.029,13.2939,4.59967,2471.934,2017-9-29T20:23:19Z
2017-09-29T18:23:30Z,42.805,6.029,13.2935,4.59964,2471.912,2017-9-29T20:24:53Z
2017-09-29T18:25:05Z,42.805,6.029,13.2935,4.59967,2471.957,2017-9-29T20:26:28Z
2017-09-29T18:26:40Z,42.805,6.029,13.2937,4.59967,2471.897,2017-9-29T20:28:03Z
2017-09-29T18:28:15Z,42.805,6.029,13.2936,4.59964,2471.942,2017-9-29T20:29:38Z
2017-09-29T18:29:50Z,42.805,6.029,13.2940,4.59965,2471.919,2017-9-29T20:31:13Z
2017-09-29T18:31:24Z,42.805,6.029,13.2935,4.59967,2471.934,2017-9-29T20:32:48Z
2017-09-29T18:32:59Z,42.805,6.029,13.2938,4.59967,2471.912,2017-9-29T20:34:23Z
2017-09-29T18:34:34Z,42.805,6.029,13.2937,4.59968,2471.957,2017-9-29T20:35:57Z
2017-09-29T18:36:09Z,42.805,6.029,13.2940,4.59963,2471.912,2017-9-29T20:37:32Z
2017-09-29T18:37:44Z,42.805,6.029,13.2934,4.59966,2471.934,2017-9-29T20:39:07Z
2017-09-29T18:39:19Z,42.805,6.029,13.2939,4.59964,2471.897,2017-9-29T20:40:42Z
2017-09-29T18:40:53Z,42.805,6.029,13.2935,4.59964,2471.934,2017-9-29T20:42:17Z
2017-09-29T18:42:28Z,42.805,6.029,13.2936,4.59967,2471.912,2017-9-29T20:43:52Z
2017-09-29T18:44:03Z,42.805,6.029,13.2936,4.59966,2471.912,2017-9-29T20:45:26Z
2017-09-29T18:45:38Z,42.805,6.029,13.2935,4.59963,2471.957,2017-9-29T20:47:01Z
2017-09-29T18:47:13Z,42.805,6.029,13.2935,4.59964,2471.934,2017-9-29T20:48:36Z
2017-09-29T18:48:48Z,42.805,6.029,13.2933,4.59965,2471.919,2017-9-29T20:50:11Z
2017-09-29T18:50:22Z,42.805,6.029,13.2934,4.59965,2471.897,2017-9-29T20:51:46Z
2017-09-29T18:51:57Z,42.805,6.029,13.2939,4.59964,2471.912,2017-9-29T20:53:21Z
2017-09-29T18:53:32Z,42.805,6.029,13.2938,4.59966,2471.934,2017-9-29T20:54:55Z
2017-09-29T18:55:07Z,42.805,6.029,13.2939,4.59964,2471.934,2017-9-29T20:56:30Z
2017-09-29T18:56:42Z,42.805,6.029,13.2935,4.59962,2471.957,2017-9-29T20:58:05Z
2017-09-29T18:58:17Z,42.805,6.029,13.2936,4.59964,2471.897,2017-9-29T20:59:40Z
2017-09-29T18:59:52Z,42.805,6.029,13.2938,4.59963,2471.912,2017-9-29T21:01:15Z
2017-09-29T19:01:26Z,42.805,6.029,13.2933,4.59963,2471.934,2017-9-29T21:02:50Z
2017-09-29T19:03:01Z,42.805,6.029,13.2939,4.59963,2471.912,2017-9-29T21:04:24Z
2017-09-29T19:04:36Z,42.805,6.029,13.2939,4.59964,2471.919,2017-9-29T21:05:59Z
2017-09-29T19:06:11Z,42.805,6.029,13.2939,4.59963,2471.912,2017-9-29T21:07:34Z
2017-09-29T19:07:46Z,42.805,6.029,13.2943,4.59963,2471.934,2017-9-29T21:09:09Z
2017-09-29T19:09:21Z,42.805,6.029,13.2940,4.59962,2471.919,2017-9-29T21:10:44Z
2017-09-29T19:10:55Z,42.805,6.029,13.2936,4.59962,2471.934,2017-9-29T21:12:19Z
2017-09-29T19:12:30Z,42.805,6.029,13.2939,4.59961,2471.934,2017-9-29T21:13:54Z
2017-09-29T19:14:05Z,42.805,6.029,13.2939,4.59963,2471.912,2017-9-29T21:15:28Z
2017-09-29T19:15:40Z,42.805,6.029,13.2933,4.59963,2471.949,2017-9-29T21:17:03Z
2017-09-29T19:17:15Z,42.805,6.029,13.2933,4.59962,2471.912,2017-9-29T21:18:38Z
2017-09-29T19:18:50Z,42.805,6.029,13.2940,4.59962,2471.912,2017-9-29T21:20:13Z
2017-09-29T19:20:24Z,42.805,6.029,13.2939,4.59962,2471.897,2017-9-29T21:21:48Z
2017-09-29T19:21:59Z,42.805,6.029,13.2935,4.59962,2471.934,2017-9-29T21:23:23Z
2017-09-29T19:23:34Z,42.805,6.029,13.2937,4.59961,2471.919,2017-9-29T21:24:57Z
2017-09-29T19:25:09Z,42.805,6.029,13.2939,4.59963,2471.897,2017-9-29T21:26:32Z
2017-09-29T19:26:44Z,42.805,6.029,13.2939,4.59962,2471.897,2017-9-29T21:28:07Z
2017-09-29T19:28:19Z,42.805,6.029,13.2937,4.59963,2471.912,2017-9-29T21:29:42Z
2017-09-29T19:29:53Z,42.805,6.029,13.2938,4.59961,2471.942,2017-9-29T21:31:17Z
2017-09-29T19:31:28Z,42.805,6.029,13.2933,4.59961,2471.897,2017-9-29T21:32:52Z
2017-09-29T19:33:03Z,42.805,6.029,13.2933,4.59963,2471.912,2017-9-29T21:34:26Z
2017-09-29T19:34:38Z,42.805,6.029,13.2935,4.59962,2471.912,2017-9-29T21:36:01Z
2017-09-29T19:36:13Z,42.805,6.029,13.2936,4.59962,2471.912,2017-9-29T21:37:36Z
2017-09-29T19:37:48Z,42.805,6.029,13.2936,4.59961,2471.912,2017-9-29T21:39:11Z
2017-09-29T19:39:23Z,42.805,6.029,13.2937,4.59961,2471.889,2017-9-29T21:40:46Z
2017-09-29T19:40:57Z,42.805,6.029,13.2932,4.59964,2471.912,2017-9-29T21:42:21Z
2017-09-29T19:42:32Z,42.805,6.029,13.2936,4.59963,2471.934,2017-9-29T21:43:56Z
2017-09-29T19:44:07Z,42.805,6.029,13.2935,4.59963,2471.889,2017-9-29T21:45:30Z
2017-09-29T19:45:42Z,42.805,6.029,13.2937,4.59964,2471.912,2017-9-29T21:47:05Z
2017-09-29T19:47:17Z,42.805,6.029,13.2936,4.59962,2471.934,2017-9-29T21:48:40Z
2017-09-29T19:48:52Z,42.805,6.029,13.2938,4.59962,2471.957,2017-9-29T21:50:15Z
2017-09-29T19:50:26Z,42.805,6.029,13.2938,4.59961,2471.889,2017-9-29T21:51:50Z
2017-09-29T19:52:01Z,42.805,6.029,13.2935,4.59963,2471.934,2017-9-29T21:53:25Z
2017-09-29T19:53:36Z,42.805,6.029,13.2942,4.59963,2471.912,2017-9-29T21:54:59Z
2017-09-29T19:55:11Z,42.805,6.029,13.2935,4.59961,2471.934,2017-9-29T21:56:34Z
2017-09-29T19:56:46Z,42.805,6.029,13.2932,4.59964,2471.919,2017-9-29T21:58:09Z
2017-09-29T19:58:21Z,42.805,6.029,13.2939,4.59964,2471.934,2017-9-29T21:59:44Z
2017-09-29T19:59:55Z,42.805,6.029,13.2936,4.59964,2471.912,2017-9-29T22:01:19Z
2017-09-29T20:01:30Z,42.805,6.029,13.2939,4.59961,2471.912,2017-9-29T22:02:54Z
2017-09-29T20:03:05Z,42.805,6.029,13.2936,4.59961,2471.897,2017-9-29T22:04:28Z
2017-09-29T20:04:40Z,42.805,6.029,13.2937,4.59964,2471.927,2017-9-29T22:06:03Z
2017-09-29T20:06:15Z,42.805,6.029,13.2935,4.59963,2471.919,2017-9-29T22:07:38Z
2017-09-29T20:07:50Z,42.805,6.029,13.2937,4.59961,2471.912,2017-9-29T22:09:13Z
2017-09-29T20:09:24Z,42.805,6.029,13.2935,4.59963,2471.874,2017-9-29T22:10:48Z
2017-09-29T20:10:59Z,42.805,6.029,13.2934,4.59964,2471.897,2017-9-29T22:12:23Z
2017-09-29T20:12:34Z,42.805,6.029,13.2939,4.59963,2471.934,2017-9-29T22:13:57Z
2017-09-29T20:14:09Z,42.805,6.029,13.2935,4.59963,2471.912,2017-9-29T22:15:32Z
2017-09-29T20:15:44Z,42.805,6.029,13.2937,4.59963,2471.866,2017-9-29T22:17:07Z
2017-09-29T20:17:19Z,42.805,6.029,13.2937,4.59964,2471.897,2017-9-29T22:18:42Z
2017-09-29T20:18:54Z,42.805,6.029,13.2935,4.59960,2471.912,2017-9-29T22:20:17Z
2017-09-29T20:20:28Z,42.805,6.029,13.2935,4.59961,2471.897,2017-9-29T22:21:52Z
2017-09-29T20:22:03Z,42.805,6.029,13.2937,4.59961,2471.912,2017-9-29T22:23:27Z
2017-09-29T20:23:38Z,42.805,6.029,13.2939,4.59962,2471.912,2017-9-29T22:25:01Z
2017-09-29T20:25:13Z,42.805,6.029,13.2936,4.59961,2471.912,2017-9-29T22:26:36Z
2017-09-29T20:26:48Z,42.805,6.029,13.2933,4.59960,2471.897,2017-9-29T22:28:11Z
2017-09-29T20:28:23Z,42.805,6.029,13.2937,4.59964,2471.874,2017-9-29T22:29:46Z
2017-09-29T20:29:57Z,42.805,6.029,13.2935,4.59961,2471.874,2017-9-29T22:31:21Z
2017-09-29T20:31:32Z,42.805,6.029,13.2935,4.59964,2471.874,2017-9-29T22:32:56Z
2017-09-29T20:33:07Z,42.805,6.029,13.2938,4.59960,2471.912,2017-9-29T22:34:30Z
2017-09-29T20:34:42Z,42.805,6.029,13.2936,4.59960,2471.889,2017-9-29T22:36:05Z
2017-09-29T20:36:17Z,42.805,6.029,13.2945,4.59960,2471.897,2017-9-29T22:37:40Z
2017-09-29T20:37:52Z,42.805,6.029,13.2938,4.59962,2471.874,2017-9-29T22:39:15Z
2017-09-29T20:39:26Z,42.805,6.029,13.2937,4.59964,2471.874,2017-9-29T22:40:50Z
2017-09-29T20:41:01Z,42.805,6.029,13.2941,4.59961,2471.912,2017-9-29T22:42:25Z
2017-09-29T20:42:36Z,42.805,6.029,13.2940,4.59963,2471.919,2017-9-29T22:43:59Z
2017-09-29T20:44:11Z,42.805,6.029,13.2937,4.59971,2471.912,2017-9-29T22:45:34Z
2017-09-29T20:45:46Z,42.805,6.029,13.2935,4.59967,2471.889,2017-9-29T22:47:09Z
2017-09-29T20:47:21Z,42.805,6.029,13.2935,4.59961,2471.874,2017-9-29T22:48:44Z
2017-09-29T20:48:56Z,42.805,6.029,13.2938,4.59963,2471.889,2017-9-29T22:50:19Z
2017-09-29T20:50:30Z,42.805,6.029,13.2935,4.59967,2471.912,2017-9-29T22:51:54Z
2017-09-29T20:52:05Z,42.805,6.029,13.2938,4.59968,2471.889,2017-9-29T22:53:29Z
2017-09-29T20:53:40Z,42.805,6.029,13.2938,4.59968,2471.889,2017-9-29T22:55:03Z
2017-09-29T20:55:15Z,42.805,6.029,13.2935,4.59967,2471.874,2017-9-29T22:56:38Z
2017-09-29T20:56:50Z,42.805,6.029,13.2939,4.59961,2471.912,2017-9-29T22:58:13Z
2017-09-29T20:58:25Z,42.805,6.029,13.2939,4.59961,2471.889,2017-9-29T22:59:48Z
2017-09-29T20:59:59Z,42.805,6.029,13.2939,4.59962,2471.912,2017-9-29T23:01:23Z
2017-09-29T21:01:34Z,42.805,6.029,13.2935,4.59969,2471.897,2017-9-29T23:02:58Z
2017-09-29T21:03:09Z,42.805,6.029,13.2935,4.59960,2471.897,2017-9-29T23:04:32Z
2017-09-29T21:04:44Z,42.805,6.029,13.2938,4.59960,2471.912,2017-9-29T23:06:07Z
2017-09-29T21:06:19Z,42.805,6.029,13.2939,4.59960,2471.919,2017-9-29T23:07:42Z
2017-09-29T21:07:54Z,42.805,6.029,13.2934,4.59961,2471.874,2017-9-29T23:09:17Z
2017-09-29T21:09:28Z,42.805,6.029,13.2940,4.59960,2471.889,2017-9-29T23:10:52Z
2017-09-29T21:11:03Z,42.805,6.029,13.2943,4.59961,2471.889,2017-9-29T23:12:27Z
2017-09-29T21:12:38Z,42.805,6.029,13.2943,4.59963,2471.889,2017-9-29T23:14:01Z
2017-09-29T21:14:13Z,42.805,6.029,13.2938,4.59969,2471.889,2017-9-29T23:15:36Z
2017-09-29T21:15:48Z,42.805,6.029,13.2940,4.59961,2471.889,2017-9-29T23:17:11Z
2017-09-29T21:17:23Z,42.805,6.029,13.2942,4.59967,2471.912,2017-9-29T23:18:46Z
2017-09-29T21:18:57Z,42.805,6.029,13.2939,4.59961,2471.866,2017-9-29T23:20:21Z
2017-09-29T21:20:32Z,42.805,6.029,13.2932,4.59961,2471.852,2017-9-29T23:21:56Z
2017-09-29T21:22:07Z,42.805,6.029,13.2939,4.59962,2471.852,2017-9-29T23:23:30Z
2017-09-29T21:23:42Z,42.805,6.029,13.2936,4.59961,2471.874,2017-9-29T23:25:05Z
2017-09-29T21:25:17Z,42.805,6.029,13.2937,4.59961,2471.866,2017-9-29T23:26:40Z
2017-09-29T21:26:52Z,42.805,6.029,13.2936,4.59963,2471.889,2017-9-29T23:28:15Z
2017-09-29T21:28:27Z,42.805,6.029,13.2938,4.59964,2471.889,2017-9-29T23:29:50Z
2017-09-29T21:30:01Z,42.805,6.029,13.2939,4.59961,2471.866,2017-9-29T23:31:25Z
2017-09-29T21:31:36Z,42.805,6.029,13.2935,4.59961,2471.852,2017-9-29T23:33:00Z
2017-09-29T21:33:11Z,42.805,6.029,13.2940,4.59967,2471.912,2017-9-29T23:34:34Z
2017-09-29T21:34:46Z,42.805,6.029,13.2936,4.59961,2471.889,2017-9-29T23:36:09Z
2017-09-29T21:36:21Z,42.805,6.029,13.2937,4.59960,2471.912,2017-9-29T23:37:44Z
2017-09-29T21:37:56Z,42.805,6.029,13.2940,4.59969,2471.934,2017-9-29T23:39:19Z
2017-09-29T21:39:30Z,42.805,6.029,13.2939,4.59962,2471.852,2017-9-29T23:40:54Z
2017-09-29T21:41:05Z,42.805,6.029,13.2933,4.59960,2471.912,2017-9-29T23:42:29Z
2017-09-29T21:42:40Z,42.805,6.029,13.2939,4.59961,2471.874,2017-9-29T23:44:03Z
2017-09-29T21:44:15Z,42.805,6.029,13.2935,4.59964,2471.866,2017-9-29T23:45:38Z
2017-09-29T21:45:50Z,42.805,6.029,13.2938,4.59962,2471.889,2017-9-29T23:47:13Z
2017-09-29T21:47:25Z,42.805,6.029,13.2939,4.59961,2471.889,2017-9-29T23:48:48Z
2017-09-29T21:48:59Z,42.805,6.029,13.2938,4.59961,2471.866,2017-9-29T23:50:23Z
2017-09-29T21:50:34Z,42.805,6.029,13.2936,4.59961,2471.912,2017-9-29T23:51:58Z
2017-09-29T21:52:09Z,42.805,6.029,13.2937,4.59961,2471.889,2017-9-29T23:53:32Z
2017-09-29T21:53:44Z,42.805,6.029,13.2939,4.59961,2471.874,2017-9-29T23:55:07Z
2017-09-29T21:55:19Z,42.805,6.029,13.2938,4.59961,2471.912,2017-9-29T23:56:42Z
2017-09-29T21:56:54Z,42.805,6.029,13.2936,4.59964,2471.874,2017-9-29T23:58:17Z
2017-09-29T21:58:29Z,42.805,6.029,13.2940,4.59964,2471.881,2017-9-29T23:59:52Z
2017-09-29T22:00:03Z,42.805,6.029,13.2933,4.59960,2471.889,2017-9-30T00:01:27Z
2017-09-29T22:01:38Z,42.805,6.029,13.2934,4.59959,2471.897,2017-9-30T00:03:02Z
2017-09-29T22:03:13Z,42.805,6.029,13.2935,4.59963,2471.889,2017-9-30T00:04:36Z
2017-09-29T22:04:48Z,42.805,6.029,13.2938,4.59960,2471.889,2017-9-30T00:06:11Z
2017-09-29T22:06:23Z,42.805,6.029,13.2939,4.59961,2471.912,2017-9-30T00:07:46Z
2017-09-29T22:07:57Z,42.805,6.029,13.2937,4.59960,2471.897,2017-9-30T00:09:21Z
2017-09-29T22:09:32Z,42.805,6.029,13.2933,4.59960,2471.874,2017-9-30T00:10:56Z
2017-09-29T22:11:07Z,42.805,6.029,13.2934,4.59960,2471.889,2017-9-30T00:12:30Z
2017-09-29T22:12:42Z,42.805,6.029,13.2935,4.59960,2471.866,2017-9-30T00:14:05Z
2017-09-29T22:14:17Z,42.805,6.029,13.2935,4.59961,2471.889,2017-9-30T00:15:40Z
2017-09-29T22:15:52Z,42.805,6.029,13.2936,4.59961,2471.852,2017-9-30T00:17:15Z
2017-09-29T22:17:27Z,42.805,6.029,13.2936,4.59961,2471.889,2017-9-30T00:18:50Z
2017-09-29T22:19:01Z,42.805,6.029,13.2933,4.59962,2471.874,2017-9-30T00:20:25Z
2017-09-29T22:20:36Z,42.805,6.029,13.2938,4.59961,2471.912,2017-9-30T00:22:00Z
2017-09-29T22:22:11Z,42.805,6.029,13.2935,4.59959,2471.889,2017-9-30T00:23:34Z
2017-09-29T22:23:46Z,42.805,6.029,13.2934,4.59961,2471.874,2017-9-30T00:25:09Z
2017-09-29T22:25:21Z,42.805,6.029,13.2936,4.59960,2471.889,2017-9-30T00:26:44Z
2017-09-29T22:26:56Z,42.805,6.029,13.2937,4.59961,2471.889,2017-9-30T00:28:19Z
2017-09-29T22:28:30Z,42.805,6.029,13.2935,4.59960,2471.912,2017-9-30T00:29:54Z
2017-09-29T22:30:05Z,42.805,6.029,13.2937,4.59960,2471.866,2017-9-30T00:31:29Z
2017-09-29T22:31:40Z,42.805,6.029,13.2940,4.59960,2471.874,2017-9-30T00:33:03Z
2017-09-29T22:33:15Z,42.805,6.029,13.2934,4.59960,2471.912,2017-9-30T00:34:38Z
2017-09-29T22:34:50Z,42.805,6.029,13.2935,4.59961,2471.889,2017-9-30T00:36:13Z
2017-09-29T22:36:25Z,42.805,6.029,13.2936,4.59960,2471.897,2017-9-30T00:37:48Z
2017-09-29T22:37:59Z,42.805,6.029,13.2936,4.59961,2471.889,2017-9-30T00:39:23Z
2017-09-29T22:39:34Z,42.805,6.029,13.2935,4.59960,2471.874,2017-9-30T00:40:58Z
2017-09-29T22:41:09Z,42.805,6.029,13.2940,4.59961,2471.874,2017-9-30T00:42:32Z
2017-09-29T22:42:44Z,42.805,6.029,13.2935,4.59960,2471.912,2017-9-30T00:44:07Z
2017-09-29T22:44:19Z,42.805,6.029,13.2935,4.59963,2471.912,2017-9-30T00:45:42Z
2017-09-29T22:45:54Z,42.805,6.029,13.2939,4.59961,2471.889,2017-9-30T00:47:17Z
2017-09-29T22:47:28Z,42.805,6.029,13.2934,4.59960,2471.874,2017-9-30T00:48:52Z
2017-09-29T22:49:03Z,42.805,6.029,13.2940,4.59961,2471.852,2017-9-30T00:50:27Z
2017-09-29T22:50:38Z,42.805,6.029,13.2936,4.59960,2471.874,2017-9-30T00:52:01Z
2017-09-29T22:52:13Z,42.805,6.029,13.2928,4.59961,2471.889,2017-9-30T00:53:36Z
2017-09-29T22:53:48Z,42.805,6.029,13.2933,4.59960,2471.889,2017-9-30T00:55:11Z
2017-09-29T22:55:23Z,42.805,6.029,13.2935,4.59960,2471.874,2017-9-30T00:56:46Z
2017-09-29T22:56:57Z,42.805,6.029,13.2935,4.59961,2471.889,2017-9-30T00:58:21Z
2017-09-29T22:58:32Z,42.805,6.029,13.2935,4.59961,2471.889,2017-9-30T00:59:56Z
2017-09-29T23:00:07Z,42.805,6.029,13.2934,4.59961,2471.866,2017-9-30T01:01:30Z
2017-09-29T23:01:42Z,42.805,6.029,13.2934,4.59961,2471.874,2017-9-30T01:03:05Z
2017-09-29T23:03:17Z,42.805,6.029,13.2933,4.59960,2471.889,2017-9-30T01:04:40Z
2017-09-29T23:04:52Z,42.805,6.029,13.2938,4.59962,2471.889,2017-9-30T01:06:15Z
2017-09-29T23:06:26Z,42.805,6.029,13.2934,4.59960,2471.852,2017-9-30T01:07:50Z
2017-09-29T23:08:01Z,42.805,6.029,13.2936,4.59960,2471.874,2017-9-30T01:09:25Z
2017-09-29T23:09:36Z,42.805,6.029,13.2935,4.59962,2471.874,2017-9-30T01:10:59Z
2017-09-29T23:11:11Z,42.805,6.029,13.2934,4.59962,2471.852,2017-9-30T01:12:34Z
2017-09-29T23:12:46Z,42.805,6.029,13.2939,4.59960,2471.889,2017-9-30T01:14:09Z
2017-09-29T23:14:21Z,42.805,6.029,13.2936,4.59961,2471.866,2017-9-30T01:15:44Z
2017-09-29T23:15:55Z,42.805,6.029,13.2938,4.59961,2471.889,2017-9-30T01:17:19Z
2017-09-29T23:17:30Z,42.805,6.029,13.2935,4.59961,2471.852,2017-9-30T01:18:54Z
2017-09-29T23:19:05Z,42.805,6.029,13.2936,4.59961,2471.889,2017-9-30T01:20:28Z
2017-09-29T23:20:40Z,42.805,6.029,13.2934,4.59961,2471.889,2017-9-30T01:22:03Z
2017-09-29T23:22:15Z,42.805,6.029,13.2936,4.59962,2471.852,2017-9-30T01:23:38Z
2017-09-29T23:23:50Z,42.805,6.029,13.2935,4.59960,2471.889,2017-9-30T01:25:13Z
2017-09-29T23:25:24Z,42.805,6.029,13.2938,4.59962,2471.874,2017-9-30T01:26:48Z
2017-09-29T23:26:59Z,42.805,6.029,13.2937,4.59961,2471.866,2017-9-30T01:28:23Z
2017-09-29T23:28:34Z,42.805,6.029,13.2940,4.59961,2471.874,2017-9-30T01:29:57Z
2017-09-29T23:30:09Z,42.805,6.029,13.2935,4.59961,2471.874,2017-9-30T01:31:32Z
2017-09-29T23:31:44Z,42.805,6.029,13.2937,4.59961,2471.866,2017-9-30T01:33:07Z
2017-09-29T23:33:19Z,42.805,6.029,13.2939,4.59961,2471.852,2017-9-30T01:34:42Z
2017-09-29T23:34:53Z,42.805,6.029,13.2933,4.59962,2471.866,2017-9-30T01:36:17Z
2017-09-29T23:36:28Z,42.805,6.029,13.2937,4.59962,2471.874,2017-9-30T01:37:52Z
2017-09-29T23:38:03Z,42.805,6.029,13.2938,4.59963,2471.874,2017-9-30T01:39:27Z
2017-09-29T23:39:38Z,42.805,6.029,13.2939,4.59961,2471.889,2017-9-30T01:41:01Z
2017-09-29T23:41:13Z,42.805,6.029,13.2935,4.59961,2471.912,2017-9-30T01:42:36Z
2017-09-29T23:42:48Z,42.805,6.029,13.2933,4.59961,2471.889,2017-9-30T01:44:11Z
2017-09-29T23:44:23Z,42.805,6.029,13.2931,4.59961,2471.874,2017-9-30T01:45:46Z
2017-09-29T23:45:57Z,42.805,6.029,13.2933,4.59961,2471.897,2017-9-30T01:47:21Z
2017-09-29T23:47:32Z,42.805,6.029,13.2938,4.59961,2471.889,2017-9-30T01:48:56Z
2017-09-29T23:49:07Z,42.805,6.029,13.2941,4.59961,2471.874,2017-9-30T01:50:30Z
2017-09-29T23:50:42Z,42.805,6.029,13.2939,4.59960,2471.874,2017-9-30T01:52:05Z
2017-09-29T23:52:17Z,42.805,6.029,13.2935,4.59961,2471.874,2017-9-30T01:53:40Z
2017-09-29T23:53:52Z,42.805,6.029,13.2935,4.59961,2471.866,2017-9-30T01:55:15Z
2017-09-29T23:55:26Z,42.805,6.029,13.2934,4.59961,2471.874,2017-9-30T01:56:50Z
2017-09-29T23:57:01Z,42.805,6.029,13.2933,4.59961,2471.889,2017-9-30T01:58:25Z
2017-09-29T23:58:36Z,42.805,6.029,13.2935,4.59961,2471.897,2017-9-30T01:59:59Z
